Location: Famechon
(49.7599°N, 2.0615°E)
Time: 05:51:53
(UTC+00:00)

Resurs 01 Rocket - Pass Details

Date: 03 February 2023
Orbit: 632 x 643 km, 97.9° (Epoch: 30 March)

Event Time Altitude Azimuth Distance (km) Brightness Sun altitude
Exits shadow 19:00:00 11° 15° (NNE) 1,979 4.0 -21.2°
Drops below altitude 10° 19:00:09 10° 13° (NNE) 2,026 4.0 -21.2°
Sets 19:02:52 0° 357° (N) 2,967 5.1 -21.7°
